Tracking 31027 objects as of 19-Jul-2025
HD Live streaming from Space Station
objects crossing your sky now

DELTA 1 DEB

Track DELTA 1 DEB now!
10-day predictions


NORAD ID: 12540
Int'l Code: 1976-077DV
Perigee: 1,449.8 km
Apogee: 1,516.9 km
Inclination: 102.4 °
Period: 115.5 minutes
Semi major axis: 7854 km
RCS: 0.0402 m2 (small)
Launch date: July 29, 1976
Source: United States (US)
Launch site: AIR FORCE WESTERN TEST RANGE (AFWTR)

Note: This is SATELLITE DEBRIS
Your satellite tracking list
STARLINK-5403
Track 1 satellite(s)




NASA's NSSDC Master Catalog

Two Line Element Set (TLE):
1 12540U 76077DV  25199.22941587 -.00000167  00000-0 -80868-3 0  9992
2 12540 102.4289 304.7237 0042716 243.3800 146.0123 12.47203013 59112
Source of the keplerian elements: AFSPC